[[{"header":{"parameterUnit":"m.s-1","parameterCategory":1,"la1":30.2991,"la2":30.254,"lo1":-89.0895,"lo2":-89.0444,"dy":0.0017,"dx":0.0017,"nx":28,"ny":28,"refTime":"2024-02-20T03:00:00:Z","depth":0,"parameterNumber":2,"parameterNumberName":"U-component_of_WINDS"},"data":[0,0,0,0,0,0,0,0,0,0,0,0,0,0,0,0,0,0,0,0,0,0,0,0,0,0,0,0,0,0,0,0,0,0,0,0,0,0,0,0,0,0,0,0,0,0,0,0,0,0,0,0,0,0,0,0,0,0,3.7002,3.7004,0,3.7183,3.7185,3.7187,3.7172,3.7169,3.7166,3.7164,3.735,3.7357,3.7364,0,0,0,0,0,0,0,0,0,0,0,0,0,3.664,3.6647,3.7002,3.7004,3.7006,3.7183,3.7185,3.7188,3.7172,3.7169,3.7165,3.7162,3.7347,3.7356,3.7365,0,0,0,0,0,0,0,0,0,0,0,0,0,3.6807,3.6649,3.7001,3.702,3.7023,3.7182,3.7186,3.7189,3.7173,3.7169,3.7165,3.7161,3.7344,3.7355,3.7366,3.7519,0,0,3.7401,3.7406,0,0,0,0,0,0,0,0,3.6798,3.682,3.7015,3.7019,3.7023,3.7151,3.7126,3.7299,3.7174,3.7116,3.7164,3.7159,3.7287,3.7302,3.7346,3.7528,3.7535,3.7402,3.7409,3.7413,3.7417,0,0,0,0,0,0,0,3.6786,3.6813,3.7074,3.7018,3.7023,3.7018,3.7038,3.7159,3.7222,3.7121,3.712,3.7142,3.7288,3.7335,3.735,3.7538,3.7401,3.7411,3.7418,3.7423,3.7851,3.7855,0,0,0,0,0,0,3.677,3.6803,3.7068,3.7079,3.6898,3.7028,3.705,3.7114,3.7221,3.7233,3.7145,3.714,3.7317,3.7337,3.7356,3.7539,3.7413,3.7424,3.743,3.7847,3.7852,3.7857,0,0,0,0,0,0,3.6763,3.6794,3.7061,3.6941,3.6974,3.7039,3.7111,3.712,3.7166,3.7239,3.7251,3.7181,3.7315,3.734,3.7478,3.7546,3.7429,3.7439,3.7841,3.7848,3.7855,3.7909,0,0,0,0,0,0,3.6752,3.6792,3.6851,3.6942,3.6981,3.718,3.7115,3.7126,3.7186,3.7181,3.7276,3.7288,3.7314,3.7461,3.7489,3.7559,3.7448,3.7835,3.7844,3.7852,3.7901,3.7916,3.793,0,0,0,0,0,3.674,3.686,3.6854,3.6886,3.7056,3.7184,3.7206,3.7233,3.7191,3.7251,3.7297,3.7285,3.7534,3.7475,3.7507,3.7581,3.7831,3.7842,3.7852,3.7894,3.7913,3.7929,0,0,0,0,0,0,3.6775,3.6872,3.6867,3.702,3.7094,3.7181,3.7257,3.7252,3.7339,3.7331,3.7361,3.7383,3.7521,3.7565,3.7498,3.7733,3.7677,3.7694,3.7699,3.7717,3.7731,3.7717,3.7457,0,0,0,0,0,3.68,3.6896,3.6976,3.7103,3.714,3.7192,3.7249,3.7263,3.734,3.7371,3.7428,3.7504,3.7599,3.7661,3.7753,3.7908,3.7927,3.7974,3.7989,3.8,3.8014,3.8096,3.8117,3.7891,3.7891,3.7891,0,0,3.6854,3.6919,3.6978,3.7112,3.717,3.7267,3.7218,3.7324,3.7396,3.7388,3.752,3.7564,3.765,3.7796,3.7864,3.7838,3.8081,3.8013,3.8022,3.803,3.8109,3.813,3.8149,3.7898,3.7897,3.7896,0,0,3.7001,3.7061,3.7172,3.7232,3.7321,3.7354,3.7381,3.7469,3.7497,3.7631,3.7625,3.7711,3.7875,3.7936,3.7988,3.8156,3.8147,3.8185,3.826,3.8339,3.8357,3.8373,3.843,3.8451,3.8199,3.8199,3.8199,0,3.7057,3.7204,3.723,3.7336,3.7394,3.739,3.7502,3.7558,3.7673,3.7713,3.7682,3.7886,3.7944,3.8102,3.8143,3.8186,3.8216,3.8174,3.8353,3.8369,3.8384,3.8439,3.8461,3.8203,3.8203,3.8202,3.8202,0,3.7266,3.7368,3.7447,3.7556,3.7623,3.7732,3.7774,3.7838,3.7847,3.7883,3.8017,3.8086,3.819,3.823,3.824,3.8389,3.837,3.8346,3.829,3.8409,3.8461,3.8482,3.8209,3.8207,3.8206,3.8205,0,0,3.7441,3.7562,3.759,3.7639,3.7736,3.7815,3.7922,3.8023,3.8077,3.8156,3.8245,3.8383,3.836,3.842,3.8436,3.8507,3.8631,3.8474,3.8476,3.8498,3.8797,3.8813,3.8837,3.8627,3.8631,3.8634,3.8789,0,3.7596,3.7786,3.7812,3.7979,3.8072,3.8069,3.8162,3.8231,3.8267,3.8351,3.8391,3.8487,3.8451,3.8487,3.8556,3.8601,3.8691,3.8591,3.8708,3.8712,3.8684,3.8865,3.8883,3.9026,3.881,3.8813,3.8816,0,3.7802,3.7885,3.8061,3.8143,3.8183,3.8266,3.836,3.844,3.8518,3.8539,3.8604,3.8611,3.8721,3.8661,3.8812,3.8742,3.8792,3.8821,3.8828,3.8838,3.877,3.8877,3.9072,3.9093,3.8849,3.8846,3.8844,0,3.7908,3.8064,3.8189,3.8231,3.8331,3.8388,3.8433,3.8506,3.8564,3.8646,3.8684,3.8778,3.8829,3.8901,3.8932,3.8887,3.908,3.9024,3.9099,3.9098,3.9138,3.9135,3.9341,3.9175,3.9174,3.9174,3.9173,0,3.8077,3.8185,3.8238,3.8314,3.8434,3.8462,3.858,3.8622,3.8687,3.877,3.8774,3.8853,3.8891,3.8975,3.9,3.9119,3.9143,3.9162,3.9167,3.9161,3.9158,3.9192,3.9182,3.918,3.9178,3.9177,3.9176,0,3.8216,3.8256,3.8391,3.8474,3.8497,3.8581,3.8651,3.8724,3.8759,3.8865,3.8892,3.8947,3.9046,3.9085,3.9206,3.9223,3.9359,3.9358,3.9332,3.9333,3.9405,3.9397,3.9639,3.9671,3.9485,3.9487,3.9489,0,3.832,3.8402,3.8492,3.8548,3.8594,3.8685,3.8743,3.8774,3.8835,3.8928,3.899,3.9089,3.9169,3.9327,3.9377,3.9469,3.9468,3.9547,3.9482,3.9472,3.9466,3.946,3.9467,3.9558,3.956,3.9561,3.9563,0,3.8499,3.8515,3.8599,3.8691,3.876,3.8834,3.8906,3.8951,3.8993,3.9061,3.9161,3.9223,3.9346,3.9443,3.9537,3.9582,3.9579,3.9583,3.9604,3.9597,3.9578,3.9587,3.9362,3.9577,3.9575,3.9574,3.9574,3.9573,3.8622,3.8694,3.8768,3.8861,3.8918,3.8984,3.9056,3.91,3.9184,3.9285,3.9299,3.9406,3.9479,3.9605,3.9653,3.9737,3.9716,3.9749,3.9756,3.9763,3.9766,3.9567,3.9755,3.9754,3.9754,3.9754,3.9753,0,3.88,3.8847,3.8932,3.9031,3.9104,3.9095,3.9173,3.9234,3.9328,3.9397,3.9475,3.9589,3.9682,3.9739,3.9833,3.9888,3.9889,3.9911,3.9907,3.9916,3.9781,3.9752,3.9909,3.9909,3.9909,3.9909,3.9909,3.9909,3.89,3.902,3.9044,3.9191,3.9237,3.9341,3.9386,3.9446,3.9501,3.9627,3.9704,3.9741,3.9804,3.9902,3.9987,4.0001,4.0034,4.0058,4.007,3.9942,3.9926,3.9911,3.9883,4.0065,4.0066,4.0198,4.0199,4.02]},{"header":{"parameterUnit":"m.s-1","parameterCategory":1,"la1":30.2991,"la2":30.254,"lo1":-89.0895,"lo2":-89.0444,"dy":0.0017,"dx":0.0017,"nx":28,"ny":28,"refTime":"2024-02-20T03:00:00:Z","depth":0,"parameterNumber":3,"parameterNumberName":"V-component_of_WINDS"},"data":[0,0,0,0,0,0,0,0,0,0,0,0,0,0,0,0,0,0,0,0,0,0,0,0,0,0,0,0,0,0,0,0,0,0,0,0,0,0,0,0,0,0,0,0,0,0,0,0,0,0,0,0,0,0,0,0,0,0,2.0495,2.0495,0,2.0455,2.0455,2.0454,2.0376,2.0375,2.0373,2.0372,2.033,2.0331,2.0331,0,0,0,0,0,0,0,0,0,0,0,0,0,2.0502,2.0502,2.0495,2.0495,2.0494,2.0455,2.0455,2.0454,2.0376,2.0375,2.0373,2.0371,2.033,2.0331,2.0331,0,0,0,0,0,0,0,0,0,0,0,0,0,2.0484,2.0502,2.0495,2.0451,2.0446,2.0456,2.0455,2.0454,2.0377,2.0375,2.0372,2.037,2.033,2.0331,2.0331,2.038,0,0,2.0333,2.0333,0,0,0,0,0,0,0,0,2.0485,2.0484,2.0458,2.0454,2.0449,2.0418,2.0442,2.0429,2.0377,2.0403,2.0372,2.0369,2.0361,2.0359,2.0357,2.0378,2.0377,2.0333,2.0333,2.0333,2.0333,0,0,0,0,0,0,0,2.0487,2.0485,2.0479,2.0457,2.0452,2.0432,2.0427,2.0439,2.0396,2.0401,2.0395,2.0391,2.0359,2.0357,2.0355,2.0376,2.0333,2.0333,2.0333,2.0334,2.0433,2.0435,0,0,0,0,0,0,2.0494,2.0487,2.0481,2.0478,2.0462,2.0434,2.0428,2.0431,2.0395,2.0388,2.0393,2.0388,2.0357,2.0355,2.0354,2.0407,2.0333,2.0334,2.0334,2.043,2.0433,2.0436,0,0,0,0,0,0,2.0495,2.0495,2.0482,2.0481,2.0478,2.0436,2.0439,2.0431,2.0429,2.039,2.0382,2.0399,2.0355,2.0353,2.0374,2.0404,2.0334,2.0334,2.0428,2.0431,2.0434,2.0515,0,0,0,0,0,0,2.0495,2.0495,2.0514,2.0482,2.0478,2.0504,2.0441,2.0432,2.043,2.0422,2.0393,2.0386,2.0353,2.0373,2.0374,2.0404,2.0335,2.0425,2.0429,2.0433,2.0509,2.0521,2.053,0,0,0,0,0,2.0496,2.0539,2.0516,2.0515,2.0501,2.0506,2.0504,2.0465,2.0433,2.0451,2.0425,2.0387,2.0401,2.0376,2.0376,2.0407,2.0422,2.0428,2.0433,2.0505,2.0518,2.053,0,0,0,0,0,0,2.0577,2.0534,2.0508,2.0542,2.0528,2.0493,2.0515,2.0481,2.0476,2.0469,2.0421,2.0415,2.0441,2.0426,2.0399,2.0451,2.0405,2.0411,2.046,2.0473,2.0483,2.0486,2.0335,0,0,0,0,0,2.0599,2.0607,2.0569,2.0603,2.0597,2.0557,2.0558,2.0529,2.0512,2.0506,2.0482,2.0468,2.0468,2.047,2.0468,2.0507,2.0498,2.0527,2.0538,2.0547,2.0552,2.0568,2.058,2.0453,2.0453,2.0453,0,0,2.0644,2.0622,2.063,2.0618,2.0604,2.0612,2.0553,2.0565,2.057,2.0508,2.0525,2.0507,2.0487,2.0517,2.0528,2.0505,2.0585,2.0553,2.0561,2.0561,2.0575,2.0587,2.0598,2.0456,2.0456,2.0455,0,0,2.073,2.0715,2.074,2.0727,2.0706,2.0678,2.0685,2.0654,2.0639,2.0656,2.0609,2.0614,2.0617,2.0604,2.0597,2.0676,2.064,2.0677,2.0732,2.0749,2.0759,2.0767,2.0793,2.0803,2.0682,2.0683,2.0683,0,2.0789,2.08,2.0757,2.0771,2.0767,2.071,2.0734,2.0723,2.0703,2.0701,2.0675,2.0675,2.0658,2.0682,2.0701,2.0698,2.0702,2.068,2.0761,2.0769,2.0776,2.08,2.0811,2.0687,2.0687,2.0686,2.0686,0,2.0872,2.088,2.0903,2.0884,2.0882,2.0901,2.086,2.0863,2.0834,2.0809,2.0825,2.0803,2.0794,2.0798,2.077,2.0817,2.0803,2.077,2.0723,2.0794,2.0815,2.0824,2.0694,2.0692,2.0691,2.0689,0,0,2.1009,2.0964,2.0973,2.0963,2.0935,2.094,2.0955,2.0947,2.0949,2.0937,2.0948,2.095,2.0918,2.0911,2.0881,2.0896,2.0956,2.086,2.0858,2.0877,2.1004,2.1028,2.104,2.0932,2.0934,2.0935,2.1005,0,2.1087,2.1112,2.1073,2.1106,2.1112,2.1057,2.107,2.1054,2.1031,2.1031,2.1006,2.1007,2.0966,2.0961,2.0973,2.0946,2.0981,2.0941,2.094,2.0941,2.0946,2.1052,2.1078,2.1145,2.1013,2.1015,2.1016,0,2.1183,2.1174,2.1208,2.1175,2.1175,2.1188,2.1176,2.1178,2.1157,2.1139,2.113,2.1094,2.1105,2.1061,2.1074,2.1048,2.1045,2.1032,2.1033,2.1031,2.0982,2.105,2.1166,2.1175,2.1029,2.1028,2.1027,0,2.1277,2.1273,2.1292,2.1285,2.1248,2.1258,2.1243,2.1219,2.1216,2.1205,2.1202,2.1193,2.1188,2.1181,2.1142,2.1114,2.116,2.1113,2.1143,2.1144,2.1155,2.1155,2.127,2.1156,2.1156,2.1156,2.1156,0,2.1368,2.139,2.1333,2.1345,2.1367,2.1322,2.1345,2.1324,2.1304,2.1309,2.1262,2.1268,2.1217,2.1217,2.1187,2.1201,2.12,2.1184,2.1176,2.1188,2.119,2.1184,2.1178,2.1158,2.1158,2.1157,2.1157,0,2.1476,2.144,2.1456,2.1419,2.141,2.1428,2.1396,2.1404,2.1377,2.1384,2.1384,2.1341,2.1339,2.1299,2.1289,2.1268,2.1294,2.1277,2.1301,2.1295,2.1327,2.1324,2.1442,2.1454,2.1335,2.1336,2.1337,0,2.1536,2.1552,2.1516,2.1516,2.1503,2.1504,2.15,2.1455,2.1452,2.1428,2.1439,2.1433,2.1425,2.1422,2.139,2.1381,2.1362,2.1404,2.1361,2.1371,2.1361,2.136,2.136,2.1414,2.1415,2.1416,2.1417,0,2.1646,2.1626,2.1622,2.1611,2.1608,2.1597,2.1583,2.1586,2.1536,2.1535,2.1532,2.1526,2.1513,2.1506,2.1491,2.1474,2.1437,2.1431,2.1438,2.1449,2.1462,2.1453,2.1324,2.1429,2.1428,2.1427,2.1426,2.1426,2.173,2.1741,2.1716,2.1713,2.1697,2.1685,2.169,2.1664,2.166,2.1646,2.162,2.162,2.1596,2.1571,2.1557,2.1555,2.1533,2.1543,2.1545,2.1548,2.1553,2.1463,2.1552,2.1552,2.1552,2.1551,2.1551,0,2.1836,2.1817,2.1814,2.1796,2.1792,2.1758,2.174,2.1739,2.174,2.1721,2.1714,2.1708,2.1701,2.1667,2.1656,2.1661,2.1643,2.1659,2.1657,2.1653,2.1575,2.157,2.1673,2.1673,2.1673,2.1673,2.1673,2.1673,2.189,2.1905,2.1882,2.1888,2.1869,2.1868,2.1861,2.1848,2.1832,2.1828,2.1822,2.18,2.1775,2.176,2.1751,2.1741,2.1739,2.176,2.1744,2.1671,2.1659,2.1648,2.1643,2.176,2.176,2.1823,2.1823,2.1824]}]]